Temp
4 4 4 4 3 3 3 3 3 3 3 3 3 3 3 3 3 3 3 3 3 3 3 3 3 3 3 3 3 3 3 3 3 2 2 2 2 2 2 2 2 2
4 4 4 3 3 3 3 3 3 3 3 3 3 3 3 3 3 3 3 3 2 3 3 3 3 3 3 3 3 3 3 3 2 2 2 2 2 2 2 2 2 2
4 4 3 3 3 3 3 3 3 3 3 3 3 3 3 3 3 3 2 2 2 2 3 3 3 3 3 2 2 3 3 3 3 3 2 2 2 2 2 2 2 2
4 4 3 3 3 3 3 3 3 2 2 2 2 2 2 3 3 3 2 2 2 2 3 3 3 3 2 2 2 2 2 2 3 3 2 2 2 2 2 2 2 2
4 4 3 3 3 3 3 3 2 2 2 2 2 2 2 2 2 2 2 2 2 2 3 3 3 3 2 2 2 2 2 2 2 2 2 2 2 2 2 2 1 1
4 3 3 3 3 3 3 3 2 2 2 2 2 2 2 2 2 2 2 2 2 2 3 3 2 2 2 1 1 2 1 2 2 2 2 2 2 2 1 1 1 1
3 3 3 3 3 3 3 3 3 2 2 2 2 2 2 2 2 2 2 2 2 2 2 2 2 2 1 1 1 2 2 2 2 2 2 2 2 2 1 1 1 1
3 3 3 3 3 3 3 3 3 2 2 2 2 2 2 2 2 2 1 2 2 2 1 1 1 1 1 1 2 2 1 1 2 2 2 2 2 1 1 1 1 1
3 3 3 3 3 3 3 3 2 2 2 2 2 2 2 2 2 2 1 1 1 1 1 1 1 1 1 1 1 1 1 1 1 1 1 1 1 1 1 1 1 1
3 3 2 2 3 3 2 2 2 2 2 2 2 2 2 2 2 2 2 1 1 1 1 1 1 1 1 1 1 1 1 1 1 1 1 1 1 1 1 1 1 1
2 2 2 2 2 2 2 2 2 2 2 2 2 2 2 2 2 2 2 1 1 1 1 1 1 1 1 1 1 1 1 1 1 1 1 1 1 1 1 1 1 1
2 2 2 2 2 2 2 2 2 2 2 2 2 2 1 2 2 2 1 1 2 2 2 2 2 1 1 1 1 1 1 1 1 1 1 1 1 1 1 1 1 1
2 2 2 2 2 2 2 2 2 2 2 2 2 1 1 2 2 2 1 1 2 2 2 2 2 1 1 1 1 1 1 1 1 1 1 1 1 1 1 1 1 1
1 1 2 2 2 2 2 2 1 1 2 2 1 1 1 1 2 2 1 1 1 2 2 2 2 1 1 1 1 1 1 1 1 1 1 1 1 1 1 1 1 1
1 1 1 1 1 1 1 1 1 1 1 1 1 1 1 1 1 1 1 1 1 2 2 2 2 2 2 1 1 1 1 1 1 1 1 1 1 1 1 1 1 1
1 1 1 1 1 1 1 1 1 0 1 1 1 1 1 1 1 1 1 1 1 2 2 2 2 2 1 1 2 2 2 2 1 1 1 1 1 1 1 1 1 1
1 1 1 1 1 1 0 0 -0 -0 0 0 0 0 0 1 1 1 1 1 1 1 1 1 1 1 1 1 1 1 2 2 1 1 1 1 1 1 1 1 1 1
1 0 0 0 0 0 0 -0 -1 -1 -0 -0 -0 -0 0 0 0 0 0 1 1 1 1 1 1 1 1 1 1 1 1 1 1 1 1 1 1 1 1 1 1 1
0 0 -0 -0 0 0 0 -0 -1 -1 -1 -1 -1 -0 -0 0 0 0 0 0 0 1 1 1 1 1 1 1 1 1 1 1 1 1 1 1 1 1 1 1 1 1
0 0 -0 -0 -0 -0 -0 -1 -1 -1 -1 -1 -1 -1 -0 0 0 0 0 0 0 0 0 0 0 0 0 0 0 0 0 1 1 1 1 1 1 1 1 1 1 1
0 -0 -0 -0 -0 -0 -0 -0 -0 -1 -1 -1 -1 -1 -0 -0 0 0 0 0 -0 -0 0 0 0 -0 -0 -0 -0 -0 0 0 0 0 0 0 0 0 0 0 0 0
-0 -0 -0 -0 -1 -0 -0 -0 -1 -1 -1 -1 -1 -1 -1 -1 -0 -0 -0 -0 -0 -0 -0 -0 -0 -0 -0 -0 -0 -0 -0 -0 -0 -0 -0 -0 -0 -0 -0 -0 -0 -0
-0 -0 -0 -1 -1 -0 -1 -1 -1 -1 -1 -1 -1 -1 -1 -1 -1 -1 -1 -0 -0 -0 -1 -1 -0 -0 -0 -0 -1 -1 -1 -1 -1 -1 -1 -0 -0 -1 -1 -1 -1 -1
-0 -1 -1 -0 -0 -1 -1 -1 -1 -1 -1 -1 -1 -1 -1 -1 -1 -1 -1 -1 -0 -0 -1 -1 -1 -1 -0 -0 -0 -1 -1 -1 -1 -1 -1 -1 -1 -1 -1 -1 -1 -1
-1 -1 -1 -1 -1 -1 -1 -1 -0 -1 -0 -1 -1 -1 -1 -1 -1 -1 -1 -1 -0 -1 -1 -1 -1 -1 -1 -1 -0 -0 -0 -1 -1 -1 -1 -1 -1 -1 -1 -1 -1 -1
-1 -1 -1 -1 -1 -1 -1 -0 -0 -0 -1 -1 -1 -1 -1 -1 -1 -1 -1 -1 -1 -1 -1 -1 -1 -1 -1 -1 -1 -0 -0 -0 -1 -1 -1 -1 -1 -1 -1 -1 -1 -1
Height
3141 3143 3144 3146 3147 3147 3148 3149 3149 3150 3150 3150 3151 3151 3151 3151 3151 3151 3151 3151 3152 3153 3153 3154 3154 3155 3155 3156 3157 3157 3158 3158 3159 3159 3160 3161 3162 3162 3163 3164 3166 3167
3141 3142 3143 3144 3145 3146 3147 3148 3149 3149 3149 3149 3150 3150 3150 3150 3150 3150 3150 3150 3151 3152 3152 3153 3153 3154 3155 3155 3156 3156 3157 3158 3158 3159 3159 3160 3161 3161 3162 3163 3164 3166
3140 3141 3142 3143 3144 3145 3146 3147 3148 3148 3148 3148 3149 3149 3149 3149 3149 3149 3149 3149 3150 3151 3151 3152 3152 3153 3154 3154 3155 3155 3156 3157 3158 3159 3159 3160 3160 3160 3161 3162 3162 3164
3138 3139 3140 3142 3143 3144 3145 3146 3147 3147 3147 3147 3148 3148 3147 3147 3147 3147 3148 3149 3149 3150 3150 3151 3151 3152 3152 3153 3154 3155 3155 3157 3158 3158 3158 3159 3159 3160 3160 3161 3161 3162
3137 3138 3139 3141 3142 3143 3144 3145 3146 3146 3146 3147 3147 3147 3147 3146 3146 3146 3147 3148 3148 3149 3149 3150 3150 3150 3151 3152 3153 3153 3155 3156 3156 3156 3157 3158 3159 3159 3159 3159 3160 3160
3136 3137 3138 3140 3141 3142 3143 3144 3145 3145 3145 3146 3146 3146 3146 3146 3146 3146 3146 3147 3148 3148 3148 3149 3149 3150 3150 3151 3152 3152 3153 3154 3155 3156 3157 3157 3158 3158 3158 3159 3159 3159
3134 3135 3137 3139 3140 3141 3141 3142 3143 3144 3144 3145 3145 3145 3146 3145 3145 3145 3146 3146 3147 3147 3148 3148 3148 3149 3150 3151 3151 3152 3153 3154 3154 3156 3156 3157 3157 3158 3158 3158 3158 3158
3132 3134 3136 3137 3139 3139 3140 3141 3142 3142 3143 3143 3144 3144 3145 3145 3144 3144 3145 3145 3146 3147 3147 3148 3148 3149 3149 3150 3151 3151 3152 3152 3153 3154 3155 3156 3157 3157 3157 3158 3158 3158
3131 3133 3134 3136 3137 3138 3139 3139 3140 3141 3142 3142 3143 3143 3144 3144 3143 3143 3144 3145 3145 3146 3147 3147 3148 3149 3149 3149 3150 3150 3151 3151 3152 3153 3154 3155 3156 3156 3157 3157 3158 3159
3130 3131 3133 3134 3135 3136 3137 3138 3139 3140 3140 3141 3142 3142 3143 3143 3143 3143 3143 3144 3145 3146 3146 3147 3147 3148 3148 3149 3149 3149 3150 3150 3151 3152 3153 3154 3154 3155 3155 3156 3157 3159
3128 3129 3131 3132 3134 3135 3136 3136 3137 3138 3139 3140 3140 3141 3141 3142 3142 3142 3142 3143 3144 3145 3145 3146 3146 3147 3148 3149 3149 3150 3150 3150 3151 3151 3152 3153 3153 3154 3155 3155 3157 3158
3126 3127 3129 3130 3132 3133 3134 3135 3136 3137 3138 3139 3139 3140 3140 3141 3141 3141 3141 3142 3143 3143 3144 3144 3145 3145 3147 3148 3149 3149 3150 3150 3150 3151 3151 3152 3153 3153 3154 3155 3156 3158
3124 3126 3127 3128 3130 3131 3132 3133 3134 3136 3137 3137 3138 3139 3139 3140 3140 3139 3140 3141 3142 3142 3143 3143 3144 3145 3146 3146 3147 3148 3149 3150 3150 3150 3151 3152 3153 3153 3154 3155 3156 3157
3122 3124 3125 3126 3128 3129 3130 3132 3133 3135 3136 3136 3137 3138 3138 3139 3139 3138 3139 3139 3140 3141 3142 3142 3143 3144 3145 3146 3146 3147 3148 3149 3150 3150 3151 3152 3152 3153 3154 3155 3156 3156
3121 3122 3123 3124 3126 3127 3129 3130 3131 3133 3134 3135 3136 3137 3137 3138 3138 3138 3138 3138 3139 3140 3140 3141 3142 3143 3144 3145 3146 3146 3147 3148 3149 3150 3151 3151 3152 3153 3154 3154 3155 3156
3118 3119 3121 3123 3124 3125 3126 3127 3129 3131 3132 3133 3134 3135 3136 3136 3136 3136 3137 3137 3138 3139 3140 3140 3141 3142 3143 3144 3145 3146 3147 3147 3148 3149 3150 3150 3151 3152 3153 3153 3154 3155
3115 3117 3119 3120 3121 3122 3124 3125 3126 3129 3130 3131 3132 3133 3134 3135 3135 3135 3135 3136 3137 3137 3139 3139 3140 3141 3142 3143 3144 3145 3146 3147 3148 3148 3149 3149 3150 3151 3152 3153 3153 3154
3113 3114 3115 3116 3118 3121 3122 3123 3124 3126 3128 3129 3130 3131 3132 3133 3134 3134 3134 3135 3135 3136 3137 3138 3139 3140 3141 3142 3143 3144 3145 3146 3147 3148 3148 3149 3149 3150 3151 3152 3152 3153
3109 3111 3112 3114 3117 3119 3120 3121 3122 3123 3125 3127 3128 3129 3131 3132 3132 3132 3133 3134 3134 3135 3136 3137 3138 3139 3141 3142 3143 3143 3144 3145 3146 3147 3148 3148 3149 3149 3150 3151 3151 3152
3106 3108 3110 3112 3114 3116 3117 3119 3120 3122 3123 3125 3126 3128 3129 3130 3131 3131 3132 3132 3133 3134 3135 3136 3137 3138 3139 3141 3142 3143 3143 3144 3145 3146 3146 3147 3148 3148 3149 3149 3150 3150
3104 3106 3108 3110 3112 3114 3116 3117 3118 3120 3121 3123 3124 3126 3127 3128 3129 3130 3130 3131 3132 3133 3134 3135 3136 3137 3138 3139 3140 3141 3142 3143 3143 3144 3145 3145 3146 3147 3147 3148 3148 3148
3102 3104 3106 3108 3110 3112 3113 3115 3116 3118 3119 3120 3122 3124 3125 3126 3127 3128 3129 3129 3130 3131 3132 3133 3134 3135 3136 3137 3138 3139 3140 3141 3142 3142 3143 3143 3144 3144 3145 3145 3145 3146
3100 3103 3105 3107 3109 3110 3111 3113 3114 3115 3117 3118 3120 3122 3123 3124 3125 3126 3127 3128 3129 3130 3131 3132 3133 3134 3134 3135 3136 3137 3138 3139 3139 3140 3140 3141 3141 3142 3142 3142 3142 3143
3099 3101 3103 3105 3107 3108 3110 3111 3112 3113 3114 3116 3118 3119 3121 3122 3123 3125 3125 3126 3127 3128 3129 3130 3131 3132 3133 3133 3134 3134 3135 3136 3136 3137 3137 3138 3138 3139 3139 3139 3139 3140
3097 3100 3102 3103 3105 3107 3108 3109 3110 3111 3113 3114 3116 3117 3118 3119 3121 3123 3123 3124 3125 3126 3127 3128 3129 3130 3130 3131 3131 3132 3132 3133 3133 3134 3134 3135 3135 3136 3136 3135 3135 3136
3096 3098 3101 3102 3104 3105 3106 3107 3108 3109 3111 3112 3114 3115 3116 3117 3118 3120 3120 3121 3122 3123 3124 3125 3126 3127 3128 3128 3128 3129 3129 3129 3130 3130 3131 3131 3131 3132 3132 3131 3131 3131
Wind_Speed
21 20 18 15 14 12 10 8 5 3 2 2 3 3 3 3 4 5 7 8 9 11 10 8 7 8 8 9 10 12 13 14 14 14 14 14 14 14 14 14 12 12
21 19 17 15 14 13 11 8 6 4 3 3 4 4 4 3 3 5 7 8 9 11 10 9 8 7 8 9 10 12 13 13 14 14 14 14 14 13 13 14 13 11
21 19 17 16 15 13 11 9 7 5 4 4 4 4 4 3 3 4 7 9 9 10 10 10 9 8 8 9 10 12 12 12 14 14 13 13 12 13 13 14 15 12
21 19 18 17 16 14 12 10 8 7 6 5 5 5 4 3 3 4 7 9 9 9 10 10 10 9 9 9 10 11 12 13 14 14 13 13 13 13 13 14 14 12
22 20 19 18 16 15 13 11 10 8 7 6 7 6 5 3 3 4 7 9 9 8 9 9 9 9 9 9 9 11 12 14 15 14 14 13 14 13 13 13 13 13
23 21 20 18 16 15 13 12 10 9 8 8 8 8 6 4 3 5 7 8 8 8 9 10 10 9 9 9 9 10 11 12 14 14 13 12 12 12 12 13 14 15
24 23 21 18 16 15 14 12 11 11 10 9 9 9 8 6 4 5 6 7 7 7 8 9 9 9 9 9 9 10 11 12 12 13 11 11 11 11 11 12 14 15
26 24 22 19 18 16 15 14 13 13 12 10 10 9 8 7 6 6 6 6 7 7 7 8 8 8 9 10 10 11 13 13 13 13 12 11 11 10 11 12 13 13
27 25 23 22 20 18 17 16 15 14 13 12 10 10 9 8 7 7 6 7 6 6 6 6 7 8 10 12 13 13 14 14 13 13 12 12 12 13 13 14 13 13
28 26 25 24 22 20 19 18 17 16 14 12 11 10 10 9 8 8 8 8 7 7 7 8 8 9 10 11 13 13 14 13 13 12 12 13 14 16 16 17 16 15
29 28 27 26 24 22 21 20 19 17 16 14 12 11 11 9 8 8 9 9 9 10 10 10 11 11 11 10 10 11 13 14 14 13 13 14 15 16 17 18 17 16
30 29 28 27 26 24 23 21 20 19 17 15 14 13 12 10 9 9 10 11 11 11 11 11 12 13 13 14 13 12 13 14 14 14 14 15 16 17 17 18 18 17
30 30 29 29 28 26 25 23 22 20 19 18 16 14 13 11 10 10 11 12 12 12 12 12 13 14 15 16 15 15 15 14 14 14 15 16 17 18 18 18 19 19
31 31 31 30 28 28 27 26 24 22 21 20 17 14 13 12 11 11 12 13 12 12 12 13 14 15 16 17 17 17 16 14 14 14 15 17 17 18 18 18 19 19
30 31 32 31 30 29 28 28 27 25 23 21 18 15 13 12 12 12 13 13 13 13 13 14 15 15 16 16 16 16 16 15 15 15 16 17 18 18 18 18 19 19
31 32 32 32 31 31 30 30 30 28 25 22 19 15 13 13 12 12 13 14 14 13 13 13 14 15 15 15 15 15 15 15 16 17 18 18 19 19 19 19 19 19
33 32 32 33 33 32 31 31 31 29 27 24 21 17 14 14 13 13 14 15 14 14 13 13 14 15 15 15 15 15 15 16 17 18 20 20 20 20 21 21 21 21
34 34 34 35 34 32 30 30 30 29 26 25 23 19 16 15 14 14 15 16 15 15 15 14 15 16 16 16 16 16 16 17 18 19 20 21 22 22 23 22 23 23
38 37 36 35 33 29 27 27 27 26 24 23 22 19 17 17 16 15 16 17 17 17 16 16 16 17 17 17 17 17 17 18 19 20 21 22 22 23 22 21 22 23
38 37 36 33 30 28 26 25 24 23 22 21 20 19 19 19 17 16 16 18 19 18 18 18 18 18 18 18 18 18 18 19 19 21 22 22 23 23 23 22 23 23
33 33 32 30 28 27 26 25 24 23 22 21 22 22 21 19 18 17 17 18 19 20 20 20 20 20 20 19 19 20 20 20 21 22 23 23 24 24 24 24 24 24
27 28 28 26 25 26 25 24 23 23 22 22 23 24 22 20 19 19 18 18 19 20 21 22 22 22 22 21 21 22 22 22 22 23 23 24 24 24 25 25 25 25
26 26 25 23 23 23 23 23 23 23 23 23 24 24 23 21 20 20 20 20 19 20 22 23 24 24 24 24 24 24 24 24 24 25 25 25 26 26 26 27 27 27
27 26 24 23 23 23 23 22 22 22 24 24 24 24 23 22 22 22 22 21 21 21 21 23 24 24 25 25 26 26 26 27 27 28 28 28 28 29 29 30 30 30
23 22 22 22 21 22 22 21 22 23 25 25 25 25 25 23 23 24 24 23 23 22 22 22 23 23 24 25 26 27 28 28 29 30 30 30 31 31 31 33 33 33
20 19 19 18 18 20 22 22 22 22 22 23 22 22 23 24 25 24 24 25 24 22 22 23 23 24 24 25 27 28 29 29 30 30 31 31 32 32 33 34 34 35
Wind_Direction
176 179 181 180 179 180 181 181 188 204 246 286 303 302 288 272 265 253 247 240 226 221 221 218 212 207 209 216 220 223 223 222 223 222 220 219 220 223 224 226 223 209
182 186 188 186 186 188 189 194 204 221 252 282 297 298 293 283 266 242 231 232 227 222 222 221 219 213 208 210 216 222 224 223 223 221 216 213 217 222 225 229 227 209
190 193 193 192 193 195 199 206 216 232 254 281 299 299 297 292 268 229 216 220 221 218 219 220 221 217 208 206 212 216 221 227 228 224 217 213 219 226 227 233 240 232
196 199 198 197 200 203 209 214 223 239 257 283 299 295 290 290 268 227 211 213 214 212 214 214 214 213 207 207 209 206 211 223 228 226 223 221 222 229 233 236 238 233
201 203 203 205 209 214 218 222 230 246 263 284 297 292 288 289 261 228 215 212 212 212 210 209 208 207 206 209 211 205 206 215 222 224 224 226 226 230 236 237 233 227
204 206 209 213 218 222 227 232 241 256 269 286 299 298 296 295 260 228 219 213 213 214 212 211 209 207 206 206 207 206 202 207 218 221 222 227 232 234 235 234 229 226
205 208 212 216 222 228 235 241 249 259 270 284 299 304 303 303 280 242 227 220 218 217 214 213 211 208 203 197 200 204 198 199 210 211 210 220 228 230 229 227 220 217
207 209 213 217 222 230 238 244 250 258 267 279 295 304 304 304 292 261 236 227 226 222 213 207 203 201 196 192 199 205 199 199 204 203 205 215 217 212 213 217 212 207
208 210 214 217 221 228 237 243 249 255 264 274 288 299 301 298 290 272 244 228 225 223 217 206 196 196 198 196 198 201 200 202 207 207 207 209 206 201 201 203 201 201
209 212 215 218 221 226 233 240 246 253 261 269 280 291 296 293 285 272 249 229 220 217 217 213 203 202 205 204 202 202 201 203 209 211 210 206 203 201 199 198 195 197
210 213 216 220 222 225 232 238 245 252 258 265 275 285 290 288 279 267 247 231 225 222 221 216 208 203 203 203 206 210 209 208 209 210 209 207 205 201 200 199 196 198
210 213 217 220 223 226 231 237 243 249 256 262 272 279 283 283 274 260 242 230 229 230 226 217 207 203 203 202 203 209 212 212 212 210 207 205 203 202 201 200 196 199
210 214 217 221 224 228 233 237 241 246 253 259 267 274 277 277 268 254 238 229 229 232 230 219 206 203 204 205 207 210 212 212 213 211 208 204 203 202 202 201 199 201
209 213 217 221 225 230 233 237 240 244 249 257 265 271 272 268 260 247 236 229 229 230 227 219 210 205 204 206 208 211 212 212 212 210 208 206 205 204 203 203 204 204
210 213 217 221 225 229 234 238 240 242 246 252 261 267 267 262 254 241 233 229 228 229 225 219 215 210 208 209 209 208 209 209 208 206 206 205 204 204 203 202 203 203
215 216 218 222 226 229 233 237 238 238 240 247 254 259 259 256 250 238 230 227 227 226 223 219 216 211 209 210 208 206 207 206 205 203 201 201 201 201 199 198 199 200
220 221 222 225 228 231 236 240 241 240 239 242 247 250 250 251 248 236 226 224 223 221 216 214 213 210 208 207 205 206 206 205 205 204 202 200 199 198 197 197 198 200
222 224 226 229 231 236 241 246 251 252 248 244 244 243 243 246 244 235 226 220 219 217 213 210 211 210 209 208 207 207 207 206 207 207 206 206 203 201 201 202 204 206
220 222 226 231 234 238 243 247 253 258 255 246 242 240 242 245 242 236 229 220 216 215 213 210 211 211 212 212 211 211 210 210 211 211 212 213 212 211 212 214 216 218
224 223 225 229 233 235 242 247 251 256 253 242 235 236 241 244 241 236 231 222 216 215 214 213 213 213 214 215 214 214 213 213 214 215 216 217 218 220 222 224 225 227
229 228 227 229 231 233 238 243 245 249 249 238 230 233 239 240 238 237 236 228 221 218 217 217 217 216 217 218 218 218 218 217 217 217 218 220 222 224 226 228 230 232
225 228 231 232 232 232 236 240 241 243 241 231 226 231 236 236 235 236 236 235 230 225 222 222 220 220 220 221 222 223 224 224 225 224 224 225 226 228 230 232 233 235
223 227 230 229 228 231 237 239 237 232 228 225 227 233 234 232 234 238 237 237 235 232 231 229 227 226 224 223 224 226 228 230 231 232 232 233 234 234 236 237 238 239
224 225 224 222 224 231 236 236 229 222 221 224 230 236 234 230 233 236 237 237 237 237 237 236 235 234 232 230 230 230 231 233 235 237 238 239 240 241 242 244 245 246
220 221 223 222 223 228 231 229 225 223 225 230 234 235 235 234 236 239 241 241 238 238 241 242 240 239 239 238 237 236 237 238 240 242 243 244 246 247 247 249 250 250
209 219 229 229 224 226 229 227 225 227 232 238 240 239 239 238 238 240 244 245 241 240 242 245 245 244 244 245 243 241 240 241 243 245 247 248 250 251 251 252 253 254